| time (UTC) | temp F | wind direction | speed knots | gust knots | rain 1hr in | rain 24hr in | rain mn in | humidity % | barometer mb |
| 20260502170236 | 72 | 348 | 1.7 | 3.5 | 0.00 | 0.69 | 0.00 | 64 | 1015.4 |
| 20260502164235 | 71 | 317 | 1.7 | 2.6 | 0.00 | 0.71 | 0.00 | 60 | 1015.4 |
| 20260502163736 | 71 | 75 | 1.7 | 2.6 | 0.00 | 0.72 | 0.00 | 62 | 1015.4 |
| 20260502163237 | 71 | 92 | 1.7 | 3.5 | 0.00 | 0.74 | 0.00 | 60 | 1015.5 |
| 20260502162236 | 71 | 348 | 1.7 | 3.5 | 0.00 | 0.76 | 0.00 | 63 | 1015.5 |
| 20260502161736 | 70 | 0 | 0.9 | 3.5 | 0.00 | 0.78 | 0.00 | 67 | 1015.4 |
| 20260502161222 | 70 | 280 | 0.9 | 2.6 | 0.00 | 0.82 | 0.00 | 70 | 1015.4 |
| 20260502160709 | 69 | 79 | 0.9 | 3.5 | 0.00 | 0.83 | 0.00 | 72 | 1015.4 |
| 20260502160207 | 69 | 49 | 0.9 | 3.5 | 0.00 | 0.85 | 0.00 | 71 | 1015.3 |
| 20260502152206 | 66 | 302 | 1.7 | 3.5 | 0.00 | 0.92 | 0.00 | 77 | 1015.3 |
| 20260502151707 | 66 | 97 | 1.7 | 3.5 | 0.00 | 0.92 | 0.00 | 78 | 1015.2 |
| 20260502151206 | 66 | 51 | 1.7 | 3.5 | 0.00 | 0.92 | 0.00 | 80 | 1015.3 |
| 20260502150708 | 65 | 219 | 1.7 | 3.5 | 0.00 | 0.92 | 0.00 | 80 | 1015.2 |
| 20260502150153 | 64 | 91 | 1.7 | 4.3 | 0.00 | 0.92 | 0.00 | 82 | 1015.2 |
| 20260502140123 | 57 | 43 | 1.7 | 3.5 | 0.00 | 1.10 | 0.00 | 94 | 1014.9 |
| 20260502130608 | 53 | 98 | 0.9 | 1.7 | 0.00 | 1.26 | 0.00 | 99 | 1014.2 |
| 20260502130110 | 53 | 316 | 0.9 | 1.7 | 0.00 | 1.28 | 0.00 | 99 | 1014.1 |
| 20260502123554 | 52 | 90 | 1.7 | 5.2 | 0.00 | 1.37 | 0.00 | 99 | 1013.7 |
| 20260502123055 | 52 | 93 | 2.6 | 7.0 | 0.00 | 1.38 | 0.00 | 99 | 1013.7 |
| 20260502122539 | 52 | 101 | 3.5 | 7.0 | 0.00 | 1.44 | 0.00 | 99 | 1013.5 |
| 20260502122041 | 52 | 116 | 3.5 | 6.1 | 0.00 | 1.45 | 0.00 | 99 | 1013.5 |
| 20260502121540 | 51 | 116 | 2.6 | 7.0 | 0.00 | 1.46 | 0.00 | 99 | 1013.5 |
| 20260502121040 | 51 | 95 | 3.5 | 7.0 | 0.00 | 1.47 | 0.00 | 99 | 1013.4 |
| 20260502120540 | 51 | 118 | 2.6 | 6.1 | 0.00 | 1.47 | 0.00 | 99 | 1013.4 |
| 20260502115535 | 51 | 100 | 3.5 | 6.1 | 0.00 | 1.49 | 0.00 | 99 | 1013.2 |
| 20260502115028 | 51 | 110 | 2.6 | 6.1 | 0.00 | 1.54 | 0.00 | 99 | 1013.1 |
| 20260502114517 | 51 | 129 | 2.6 | 5.2 | 0.00 | 1.63 | 0.00 | 99 | 1013.0 |
| 20260502114017 | 51 | 310 | 2.6 | 5.2 | 0.00 | 1.70 | 0.00 | 99 | 1013.0 |
| 20260502113516 | 51 | 118 | 2.6 | 5.2 | 0.00 | 1.73 | 0.00 | 99 | 1013.0 |
| 20260502113017 | 51 | 0 | 2.6 | 5.2 | 0.00 | 1.75 | 0.00 | 99 | 1012.9 |
| 20260502112510 | 51 | 124 | 3.5 | 5.2 | 0.00 | 1.76 | 0.00 | 99 | 1012.9 |
| 20260502112012 | 52 | 125 | 3.5 | 5.2 | 0.00 | 1.80 | 0.00 | 99 | 1012.8 |
| 20260502111510 | 52 | 106 | 2.6 | 6.1 | 0.00 | 1.81 | 0.00 | 99 | 1012.8 |
| 20260502111011 | 52 | 117 | 3.5 | 7.0 | 0.00 | 1.81 | 0.00 | 99 | 1012.7 |
| 20260502110509 | 52 | 109 | 3.5 | 7.0 | 0.00 | 1.81 | 0.00 | 99 | 1012.7 |
| 20260502110010 | 52 | 119 | 2.6 | 5.2 | 0.00 | 1.84 | 0.00 | 99 | 1012.7 |
| 20260502105510 | 52 | 117 | 2.6 | 7.0 | 0.00 | 1.87 | 0.00 | 99 | 1012.6 |
| 20260502105010 | 52 | 96 | 3.5 | 7.0 | 0.00 | 1.89 | 0.00 | 99 | 1012.6 |
| 20260502104510 | 52 | 0 | 3.5 | 7.0 | 0.00 | 1.91 | 0.00 | 99 | 1012.6 |
| 20260502104005 | 52 | 121 | 3.5 | 7.0 | 0.00 | 1.91 | 0.00 | 99 | 1012.5 |
| 20260502103505 | 52 | 89 | 3.5 | 7.0 | 0.00 | 1.91 | 0.00 | 99 | 1012.4 |
| 20260502103000 | 52 | 148 | 3.5 | 7.0 | 0.00 | 1.91 | 0.00 | 99 | 1012.4 |
| 20260502102459 | 52 | 101 | 3.5 | 7.0 | 0.00 | 1.91 | 0.00 | 99 | 1012.4 |
| 20260502101955 | 52 | 117 | 3.5 | 6.1 | 0.00 | 1.92 | 0.00 | 99 | 1012.4 |
| 20260502101455 | 52 | 116 | 3.5 | 6.1 | 0.00 | 1.94 | 0.00 | 99 | 1012.2 |
| 20260502100955 | 52 | 120 | 3.5 | 6.1 | 0.00 | 2.08 | 0.00 | 99 | 1012.1 |
| 20260502100448 | 52 | 124 | 3.5 | 6.1 | 0.00 | 2.12 | 0.00 | 99 | 1012.0 |
| 20260502091413 | 53 | 120 | 2.6 | 5.2 | 0.00 | 2.69 | 0.00 | 99 | 1011.2 |
| 20260502090913 | 53 | 126 | 2.6 | 5.2 | 0.00 | 2.70 | 0.00 | 100 | 1011.2 |
| 20260502090413 | 53 | 117 | 2.6 | 5.2 | 0.00 | 2.71 | 0.00 | 99 | 1011.1 |
| 20260502071329 | 55 | 92 | 1.7 | 2.6 | 0.00 | 3.68 | 0.00 | 100 | 1010.9 |
| 20260502070800 | 55 | 101 | 1.7 | 2.6 | 0.00 | 3.68 | 0.00 | 100 | 1011.0 |
| 20260502070259 | 55 | 43 | 1.7 | 3.5 | 0.00 | 3.68 | 0.00 | 100 | 1011.1 |
| 20260502065759 | 55 | 102 | 1.7 | 3.5 | 0.00 | 3.68 | 0.00 | 100 | 1011.1 |
| 20260502065246 | 55 | 91 | 1.7 | 3.5 | 0.00 | 3.68 | 0.00 | 99 | 1011.0 |
| 20260502064744 | 55 | 78 | 1.7 | 5.2 | 0.00 | 3.68 | 0.00 | 99 | 1010.9 |
| 20260502064221 | 54 | 57 | 1.7 | 5.2 | 0.00 | 3.68 | 0.00 | 99 | 1010.8 |
| 20260502063715 | 54 | 323 | 1.7 | 2.6 | 0.00 | 3.68 | 0.00 | 99 | 1010.7 |
| 20260502063213 | 54 | 73 | 1.7 | 2.6 | 0.00 | 3.68 | 0.00 | 99 | 1010.8 |
| 20260502062714 | 54 | 85 | 1.7 | 3.5 | 0.00 | 3.68 | 0.00 | 99 | 1010.7 |
| 20260502062214 | 54 | 93 | 1.7 | 3.5 | 0.00 | 3.68 | 0.00 | 99 | 1010.7 |
| 20260502061714 | 55 | 96 | 1.7 | 2.6 | 0.00 | 3.68 | 0.00 | 99 | 1010.7 |
| 20260502061213 | 55 | 67 | 1.7 | 2.6 | 0.00 | 3.68 | 0.00 | 99 | 1010.6 |
| 20260502060714 | 55 | 93 | 1.7 | 2.6 | 0.00 | 3.68 | 0.00 | 99 | 1010.6 |
| 20260502060215 | 55 | 331 | 1.7 | 2.6 | 0.00 | 3.69 | 0.00 | 99 | 1010.6 |
| 20260502055714 | 55 | 354 | 1.7 | 3.5 | 0.00 | 3.69 | 0.00 | 99 | 1010.7 |
| 20260502055202 | 55 | 80 | 1.7 | 3.5 | 0.00 | 3.69 | 0.00 | 99 | 1010.7 |
| 20260502054701 | 55 | 78 | 1.7 | 2.6 | 0.00 | 3.70 | 0.00 | 99 | 1010.6 |
| 20260502054201 | 55 | 79 | 1.7 | 2.6 | 0.00 | 3.74 | 0.00 | 99 | 1010.6 |
| 20260502053700 | 55 | 59 | 1.7 | 3.5 | 0.00 | 3.81 | 0.00 | 99 | 1010.6 |
| 20260502053146 | 55 | 37 | 1.7 | 3.5 | 0.00 | 3.81 | 0.00 | 99 | 1010.6 |
| 20260502052646 | 55 | 97 | 1.7 | 3.5 | 0.00 | 3.81 | 0.00 | 99 | 1010.6 |
| 20260502052131 | 55 | 115 | 1.7 | 3.5 | 0.00 | 3.82 | 0.00 | 99 | 1010.6 |
| 20260502051631 | 55 | 47 | 1.7 | 3.5 | 0.00 | 3.82 | 0.00 | 99 | 1010.6 |
| 20260502051131 | 55 | 37 | 1.7 | 3.5 | 0.00 | 3.82 | 0.00 | 99 | 1010.5 |
| 20260502050615 | 55 | 42 | 1.7 | 3.5 | 0.00 | 3.82 | 0.00 | 99 | 1010.5 |
| 20260502050115 | 55 | 2 | 1.7 | 7.8 | 0.00 | 3.83 | 0.00 | 99 | 1010.5 |
| 20260502045615 | 55 | 52 | 1.7 | 7.8 | 0.00 | 3.91 | 3.85 | 99 | 1010.5 |
| 20260502045115 | 55 | 61 | 1.7 | 3.5 | 0.00 | 3.99 | 3.85 | 99 | 1010.4 |
| 20260502044615 | 55 | 72 | 1.7 | 3.5 | 0.00 | 4.10 | 3.85 | 99 | 1010.4 |
| 20260502044117 | 55 | 102 | 1.7 | 2.6 | 0.00 | 4.13 | 3.85 | 99 | 1010.4 |
| 20260502043601 | 55 | 352 | 1.7 | 2.6 | 0.00 | 4.13 | 3.85 | 99 | 1010.4 |
| 20260502043101 | 55 | 69 | 1.7 | 3.5 | 0.00 | 4.13 | 3.85 | 99 | 1010.4 |
| 20260502042602 | 55 | 69 | 1.7 | 3.5 | 0.00 | 4.13 | 3.85 | 99 | 1010.3 |
| 20260502042103 | 55 | 347 | 1.7 | 2.6 | 0.00 | 4.13 | 3.85 | 99 | 1010.2 |
| 20260502041548 | 55 | 56 | 1.7 | 3.5 | 0.00 | 4.13 | 3.85 | 99 | 1010.2 |
| 20260502041048 | 55 | 112 | 1.7 | 3.5 | 0.00 | 4.13 | 3.85 | 99 | 1010.3 |
| 20260502040547 | 55 | 103 | 1.7 | 3.5 | 0.00 | 4.13 | 3.85 | 99 | 1010.4 |
| 20260502040034 | 55 | 68 | 1.7 | 4.3 | 0.00 | 4.13 | 3.85 | 99 | 1010.6 |
| 20260502035517 | 55 | 100 | 1.7 | 4.3 | 0.00 | 4.13 | 3.85 | 99 | 1010.6 |
| 20260502035015 | 55 | 88 | 1.7 | 3.5 | 0.00 | 4.13 | 3.85 | 99 | 1010.6 |
| 20260502034502 | 55 | 93 | 1.7 | 3.5 | 0.00 | 4.13 | 3.85 | 99 | 1010.6 |
| 20260502034003 | 55 | 101 | 1.7 | 4.3 | 0.00 | 4.13 | 3.85 | 99 | 1010.5 |
| 20260502033447 | 55 | 69 | 1.7 | 4.3 | 0.00 | 4.13 | 3.85 | 99 | 1010.3 |
| 20260502032932 | 55 | 81 | 1.7 | 3.5 | 0.00 | 4.13 | 3.85 | 99 | 1010.2 |
| 20260502032433 | 55 | 114 | 1.7 | 4.3 | 0.00 | 4.13 | 3.85 | 99 | 1010.2 |
| 20260502031918 | 55 | 65 | 1.7 | 4.3 | 0.00 | 4.13 | 3.85 | 99 | 1010.1 |
| 20260502031418 | 55 | 91 | 1.7 | 3.5 | 0.00 | 4.13 | 3.85 | 99 | 1010.0 |
| 20260502030917 | 55 | 107 | 1.7 | 3.5 | 0.01 | 4.13 | 3.85 | 99 | 1009.9 |
| 20260502030417 | 56 | 82 | 1.7 | 3.5 | 0.02 | 4.13 | 3.85 | 99 | 1009.6 |
| 20260502025917 | 56 | 101 | 1.7 | 3.5 | 0.02 | 4.13 | 3.85 | 99 | 1009.5 |
| 20260502025417 | 56 | 81 | 1.7 | 3.5 | 0.03 | 4.13 | 3.85 | 99 | 1009.5 |
| 20260502024904 | 56 | 89 | 1.7 | 5.2 | 0.03 | 4.13 | 3.85 | 99 | 1009.3 |
| 20260502024354 | 56 | 28 | 1.7 | 5.2 | 0.04 | 4.13 | 3.85 | 99 | 1009.1 |
| 20260502023849 | 56 | 92 | 1.7 | 5.2 | 0.04 | 4.13 | 3.85 | 99 | 1009.0 |
| 20260502023334 | 56 | 60 | 2.6 | 4.3 | 0.04 | 4.13 | 3.85 | 99 | 1008.9 |
| 20260502022833 | 56 | 95 | 1.7 | 4.3 | 0.04 | 4.13 | 3.85 | 99 | 1008.8 |
| 20260502022319 | 56 | 73 | 1.7 | 3.5 | 0.05 | 4.13 | 3.85 | 99 | 1008.9 |
| 20260502021819 | 56 | 95 | 1.7 | 3.5 | 0.07 | 4.13 | 3.85 | 99 | 1009.1 |
| 20260502021319 | 56 | 90 | 1.7 | 3.5 | 0.08 | 4.13 | 3.85 | 99 | 1009.1 |
| 20260502020820 | 56 | 28 | 1.7 | 3.5 | 0.08 | 4.12 | 3.84 | 99 | 1008.5 |
| 20260502020318 | 57 | 41 | 1.7 | 3.5 | 0.09 | 4.12 | 3.83 | 99 | 1008.8 |
| 20260502015820 | 57 | 92 | 1.7 | 3.5 | 0.09 | 4.11 | 3.83 | 99 | 1008.7 |
| 20260502015319 | 57 | 33 | 1.7 | 3.5 | 0.09 | 4.11 | 3.82 | 99 | 1008.8 |
| 20260502014821 | 57 | 320 | 1.7 | 4.3 | 0.09 | 4.10 | 3.82 | 99 | 1008.6 |
| 20260502014319 | 57 | 51 | 1.7 | 4.3 | 0.09 | 4.09 | 3.81 | 99 | 1008.4 |
| 20260502013819 | 58 | 47 | 0.9 | 2.6 | 0.08 | 4.09 | 3.81 | 99 | 1008.8 |
| 20260502013318 | 58 | 11 | 0.9 | 2.6 | 0.09 | 4.09 | 3.81 | 99 | 1008.4 |
| 20260502012820 | 58 | 24 | 0.9 | 3.5 | 0.09 | 4.09 | 3.80 | 99 | 1008.0 |
| 20260502012318 | 58 | 87 | 0.9 | 3.5 | 0.08 | 4.08 | 3.80 | 99 | 1007.9 |
| 20260502011818 | 58 | 71 | 0.9 | 3.5 | 0.06 | 4.06 | 3.78 | 99 | 1007.9 |
| 20260502011318 | 58 | 0 | 0.9 | 3.5 | 0.05 | 4.05 | 3.77 | 99 | 1008.0 |
| 20260502010818 | 58 | 321 | 0.9 | 2.6 | 0.04 | 4.04 | 3.76 | 99 | 1008.0 |
| 20260502010250 | 58 | 323 | 0.9 | 1.7 | 0.03 | 4.02 | 3.74 | 99 | 1008.1 |
| 20260502005749 | 58 | 306 | 1.7 | 1.7 | 0.04 | 4.02 | 3.74 | 99 | 1008.5 |
| 20260502005250 | 58 | 304 | 1.7 | 2.6 | 0.04 | 4.02 | 3.73 | 99 | 1008.5 |
| 20260502004751 | 58 | 12 | 1.7 | 2.6 | 0.05 | 4.02 | 3.73 | 99 | 1007.7 |
| 20260502004250 | 58 | 26 | 1.7 | 3.5 | 0.05 | 4.01 | 3.72 | 99 | 1007.0 |
| 20260502003750 | 58 | 86 | 1.7 | 3.5 | 0.06 | 4.01 | 3.72 | 99 | 1006.6 |
| 20260502003251 | 58 | 339 | 1.7 | 3.5 | 0.06 | 4.00 | 3.72 | 99 | 1006.5 |
| 20260502002735 | 58 | 49 | 1.7 | 4.3 | 0.06 | 4.00 | 3.72 | 99 | 1006.7 |
| 20260502002222 | 58 | 21 | 1.7 | 4.3 | 0.06 | 4.00 | 3.72 | 99 | 1007.1 |
| 20260502001719 | 59 | 83 | 1.7 | 2.6 | 0.06 | 4.00 | 3.72 | 99 | 1007.5 |
| 20260502001153 | 59 | 32 | 1.7 | 2.6 | 0.06 | 4.00 | 3.72 | 99 | 1007.7 |
| 20260502000656 | 59 | 51 | 0.9 | 2.6 | 0.07 | 4.00 | 3.72 | 99 | 1007.3 |
| 20260502000151 | 59 | 33 | 1.7 | 3.5 | 0.10 | 3.99 | 3.71 | 99 | 1007.1 |
| 20260501235652 | 59 | 349 | 1.7 | 5.2 | 0.11 | 3.98 | 3.70 | 99 | 1007.5 |
| 20260501235139 | 59 | 12 | 0.9 | 5.2 | 0.11 | 3.97 | 3.69 | 99 | 1007.8 |
| 20260501234638 | 59 | 323 | 1.7 | 3.5 | 0.11 | 3.96 | 3.68 | 99 | 1007.3 |
| 20260501234122 | 59 | 48 | 0.9 | 3.5 | 0.10 | 3.95 | 3.67 | 99 | 1007.0 |
| 20260501233623 | 59 | 311 | 0.9 | 3.5 | 0.09 | 3.94 | 3.66 | 99 | 1006.6 |
| 20260501233123 | 59 | 87 | 0.9 | 3.5 | 0.09 | 3.94 | 3.66 | 99 | 1006.6 |
| 20260501232623 | 59 | 338 | 0.9 | 2.6 | 0.09 | 3.94 | 3.66 | 99 | 1006.4 |
| 20260501232122 | 59 | 317 | 0.9 | 2.6 | 0.09 | 3.94 | 3.66 | 99 | 1006.2 |
| 20260501231622 | 59 | 310 | 1.7 | 5.2 | 0.09 | 3.94 | 3.66 | 99 | 1005.7 |
| 20260501231122 | 60 | 322 | 1.7 | 5.2 | 0.09 | 3.94 | 3.66 | 99 | 1005.4 |
| 20260501230623 | 60 | 2 | 1.7 | 5.2 | 0.07 | 3.93 | 3.64 | 99 | 1005.9 |
| 20260501230123 | 60 | 65 | 0.9 | 5.2 | 0.02 | 3.88 | 3.59 | 99 | 1006.9 |
| 20260501225622 | 60 | 81 | 0.9 | 3.5 | 0.01 | 3.87 | 3.58 | 99 | 1007.2 |
| 20260501225122 | 60 | 84 | 1.7 | 10.4 | 0.01 | 3.86 | 3.58 | 99 | 1006.6 |
| 20260501224622 | 60 | 302 | 1.7 | 10.4 | 0.00 | 3.85 | 3.57 | 99 | 1005.2 |
| 20260501224122 | 60 | 75 | 1.7 | 3.5 | 0.00 | 3.85 | 3.57 | 99 | 1005.6 |
| 20260501223622 | 60 | 0 | 1.7 | 4.3 | 0.00 | 3.85 | 3.57 | 99 | 1005.1 |
| 20260501223120 | 60 | 316 | 1.7 | 4.3 | 0.00 | 3.85 | 3.57 | 99 | 1004.8 |
| 20260501222622 | 60 | 58 | 1.7 | 4.3 | 0.02 | 3.85 | 3.57 | 99 | 1004.8 |
| 20260501222121 | 60 | 342 | 1.7 | 4.3 | 0.03 | 3.85 | 3.57 | 99 | 1004.8 |
| 20260501221622 | 60 | 263 | 1.7 | 3.5 | 0.03 | 3.85 | 3.57 | 99 | 1004.9 |
| 20260501221121 | 61 | 75 | 1.7 | 3.5 | 0.03 | 3.85 | 3.57 | 99 | 1005.2 |
| 20260501220622 | 61 | 82 | 1.7 | 3.5 | 0.03 | 3.85 | 3.57 | 99 | 1005.4 |
| 20260501220121 | 61 | 8 | 0.9 | 1.7 | 0.03 | 3.85 | 3.57 | 99 | 1005.6 |
| 20260501215622 | 61 | 321 | 0.9 | 2.6 | 0.04 | 3.85 | 3.57 | 99 | 1005.9 |
| 20260501215121 | 61 | 349 | 1.7 | 2.6 | 0.04 | 3.85 | 3.57 | 99 | 1006.1 |
| 20260501214622 | 61 | 91 | 0.9 | 2.6 | 0.04 | 3.85 | 3.57 | 99 | 1006.3 |
| 20260501214107 | 61 | 51 | 0.9 | 2.6 | 0.06 | 3.85 | 3.57 | 99 | 1006.0 |
| 20260501213608 | 61 | 12 | 0.9 | 2.6 | 0.07 | 3.85 | 3.57 | 99 | 1006.5 |
| 20260501213108 | 61 | 50 | 0.9 | 2.6 | 0.08 | 3.85 | 3.57 | 99 | 1006.3 |
| 20260501212608 | 61 | 309 | 0.9 | 2.6 | 0.08 | 3.84 | 3.56 | 99 | 1006.0 |
| 20260501212107 | 61 | 0 | 0.9 | 2.6 | 0.08 | 3.83 | 3.54 | 99 | 1006.0 |
| 20260501211607 | 61 | 0 | 0.9 | 1.7 | 0.11 | 3.83 | 3.54 | 99 | 1005.9 |
| 20260501211107 | 61 | 34 | 0.9 | 1.7 | 0.11 | 3.83 | 3.54 | 99 | 1005.7 |
| 20260501210608 | 61 | 9 | 0.9 | 2.6 | 0.13 | 3.83 | 3.54 | 99 | 1005.1 |
| 20260501210038 | 61 | 313 | 0.9 | 2.6 | 0.13 | 3.82 | 3.54 | 99 | 1004.4 |
| 20260501205538 | 61 | 341 | 0.9 | 2.6 | 0.16 | 3.82 | 3.54 | 99 | 1004.6 |
| 20260501205038 | 61 | 338 | 0.9 | 1.7 | 0.17 | 3.81 | 3.53 | 99 | 1005.1 |
| 20260501204538 | 61 | 0 | 0.9 | 1.7 | 0.17 | 3.81 | 3.53 | 99 | 1005.0 |
| 20260501204024 | 61 | 31 | 0.9 | 1.7 | 0.15 | 3.79 | 3.50 | 99 | 1004.7 |
| 20260501203523 | 61 | 12 | 0.9 | 2.6 | 0.14 | 3.78 | 3.49 | 99 | 1005.8 |
| 20260501203024 | 61 | 307 | 0.9 | 2.6 | 0.13 | 3.77 | 3.48 | 99 | 1005.4 |
| 20260501202524 | 62 | 107 | 0.9 | 2.6 | 0.13 | 3.76 | 3.47 | 99 | 1004.5 |
| 20260501202025 | 62 | 96 | 0.9 | 2.6 | 0.11 | 3.74 | 3.46 | 99 | 1004.7 |
| 20260501201522 | 62 | 95 | 0.9 | 2.6 | 0.09 | 3.72 | 3.44 | 99 | 1004.7 |
| 20260501201023 | 62 | 352 | 0.9 | 2.6 | 0.09 | 3.71 | 3.43 | 99 | 1004.2 |
| 20260501200522 | 62 | 325 | 0.9 | 2.6 | 0.07 | 3.70 | 3.42 | 99 | 1004.3 |
| 20260501200024 | 62 | 312 | 0.9 | 1.7 | 0.06 | 3.69 | 3.41 | 99 | 1004.6 |
| 20260501195522 | 62 | 93 | 0.9 | 1.7 | 0.04 | 3.65 | 3.37 | 99 | 1005.1 |
| 20260501195022 | 62 | 347 | 0.9 | 2.6 | 0.03 | 3.64 | 3.36 | 99 | 1004.7 |
| 20260501194523 | 62 | 324 | 0.9 | 2.6 | 0.03 | 3.63 | 3.35 | 99 | 1004.3 |
| 20260501194023 | 62 | 327 | 0.9 | 1.7 | 0.04 | 3.63 | 3.35 | 99 | 1004.3 |
| 20260501193523 | 62 | 353 | 0.9 | 1.7 | 0.06 | 3.63 | 3.35 | 99 | 1004.5 |
| 20260501193024 | 63 | 357 | 0.9 | 1.7 | 0.08 | 3.63 | 3.35 | 99 | 1004.6 |
| 20260501192510 | 62 | 22 | 0.9 | 1.7 | 0.08 | 3.63 | 3.35 | 99 | 1004.5 |
| 20260501192010 | 62 | 67 | 0.9 | 1.7 | 0.09 | 3.63 | 3.35 | 99 | 1004.5 |
| 20260501191510 | 62 | 0 | 0.9 | 1.7 | 0.09 | 3.63 | 3.35 | 99 | 1004.4 |
| 20260501190955 | 62 | 109 | 0.0 | 1.7 | 0.09 | 3.63 | 3.34 | 99 | 1004.4 |
| 20260501190454 | 62 | 122 | 0.0 | 1.7 | 0.11 | 3.63 | 3.34 | 99 | 1005.0 |
| 20260501185955 | 62 | 0 | 0.9 | 1.7 | 0.11 | 3.63 | 3.34 | 99 | 1004.9 |
| 20260501185456 | 62 | 103 | 0.9 | 1.7 | 0.10 | 3.62 | 3.33 | 99 | 1004.7 |
| 20260501184942 | 62 | 310 | 0.9 | 1.7 | 0.10 | 3.61 | 3.33 | 99 | 1004.6 |
| 20260501184442 | 62 | 49 | 0.9 | 1.7 | 0.11 | 3.61 | 3.32 | 99 | 1004.4 |
| 20260501183940 | 62 | 78 | 0.9 | 1.7 | 0.11 | 3.60 | 3.31 | 99 | 1004.5 |
| 20260501183440 | 62 | 333 | 0.0 | 1.7 | 0.09 | 3.57 | 3.29 | 99 | 1004.6 |
| 20260501182939 | 62 | 0 | 0.9 | 5.2 | 0.07 | 3.55 | 3.27 | 99 | 1004.8 |
| 20260501182437 | 62 | 325 | 0.9 | 5.2 | 0.07 | 3.55 | 3.26 | 99 | 1004.2 |
| 20260501181933 | 62 | 3 | 0.9 | 1.7 | 0.08 | 3.54 | 3.26 | 99 | 1003.3 |
| 20260501181427 | 62 | 111 | 1.7 | 5.2 | 0.09 | 3.54 | 3.26 | 99 | 1003.3 |
| 20260501180926 | 62 | 340 | 1.7 | 7.8 | 0.08 | 3.54 | 3.25 | 99 | 1002.7 |
| 20260501180427 | 62 | 125 | 1.7 | 7.8 | 0.07 | 3.52 | 3.24 | 99 | 1003.2 |
| 20260501175925 | 62 | 311 | 0.9 | 2.6 | 0.07 | 3.52 | 3.24 | 99 | 1003.5 |
| 20260501175426 | 62 | 3 | 0.9 | 2.6 | 0.07 | 3.52 | 3.23 | 99 | 1004.3 |
| 20260501174925 | 62 | 90 | 0.9 | 2.6 | 0.06 | 3.51 | 3.22 | 99 | 1004.8 |
| 20260501174426 | 62 | 0 | 0.9 | 2.6 | 0.06 | 3.50 | 3.21 | 99 | 1004.8 |
| 20260501173924 | 62 | 85 | 1.7 | 2.6 | 0.07 | 3.49 | 3.20 | 99 | 1005.0 |
| 20260501173426 | 62 | 37 | 0.9 | 2.6 | 0.09 | 3.48 | 3.20 | 99 | 1005.2 |
| 20260501172925 | 62 | 89 | 0.9 | 3.5 | 0.09 | 3.48 | 3.20 | 99 | 1005.4 |
| 20260501172426 | 62 | 0 | 0.9 | 3.5 | 0.10 | 3.48 | 3.19 | 99 | 1005.5 |